Big Bear Station Historical Data
Daily Summary for May 22, 2017 Units:  English    Metric   Both
Next Day »
Daily Weekly Monthly Yearly Custom
  High: Low: Average:
Temperature: 81.9 °F 40.5 °F 60.4 °F
Dew Point: 44.4 °F 27.4 °F 36.7 °F
Humidity: 81% 21% 46%
Wind Speed: 6.3mph 0.0mph 1.7mph
Wind Gust: -999.0mph - -
Wind- - WNW
Pressure: 30.23 in 30.19 in -
Precipitation: 0.00 in    
Historical Graphs
 
 
Tabular Data for May 22, 2017
Time Temperature Dew Point Pressure Wind Wind Speed Wind Gust Humidity Rainfall Rate (Hourly)
00:14 46.6 °F 30.4 °F 30.21 in Calm   -999.0 mph 53% 0 in
00:30 46.0 °F 30.3 °F 30.21 in Calm   -999.0 mph 54% 0 in
00:45 45.7 °F 30.5 °F 30.21 in SSE 2.2 mph -999.0 mph 55% 0 in
01:00 45.0 °F 28.9 °F 30.21 in Calm   -999.0 mph 53% 0 in
01:15 44.8 °F 27.8 °F 30.21 in Calm   -999.0 mph 51% 0 in
01:31 44.4 °F 27.4 °F 30.21 in Calm   -999.0 mph 51% 0 in
01:46 44.1 °F 29.0 °F 30.21 in Calm   -999.0 mph 55% 0 in
02:01 43.9 °F 29.2 °F 30.20 in Calm   -999.0 mph 56% 0 in
02:16 43.9 °F 29.6 °F 30.21 in Calm   -999.0 mph 57% 0 in
02:31 43.5 °F 29.7 °F 30.20 in Calm   -999.0 mph 58% 0 in
02:47 43.3 °F 31.2 °F 30.20 in Calm   -999.0 mph 62% 0 in
03:02 43.0 °F 31.7 °F 30.20 in Calm   -999.0 mph 64% 0 in
03:17 42.8 °F 31.8 °F 30.19 in Calm   -999.0 mph 65% 0 in
03:32 42.3 °F 32.9 °F 30.19 in Calm   -999.0 mph 69% 0 in
03:47 42.1 °F 31.6 °F 30.19 in Calm   -999.0 mph 66% 0 in
04:03 42.1 °F 31.9 °F 30.19 in Calm   -999.0 mph 67% 0 in
04:18 41.9 °F 30.2 °F 30.19 in Calm   -999.0 mph 63% 0 in
04:33 41.5 °F 32.1 °F 30.19 in Calm   -999.0 mph 69% 0 in
04:48 41.2 °F 32.9 °F 30.19 in Calm   -999.0 mph 72% 0 in
05:03 41.2 °F 33.5 °F 30.19 in Calm   -999.0 mph 74% 0 in
05:19 41.0 °F 34.0 °F 30.19 in Calm   -999.0 mph 76% 0 in
05:34 41.0 °F 34.3 °F 30.19 in Calm   -999.0 mph 77% 0 in
05:49 40.8 °F 34.5 °F 30.20 in Calm   -999.0 mph 78% 0 in
06:04 40.5 °F 34.2 °F 30.20 in Calm   -999.0 mph 78% 0 in
06:20 40.8 °F 34.5 °F 30.21 in Calm   -999.0 mph 78% 0 in
06:35 41.2 °F 34.9 °F 30.21 in Calm   -999.0 mph 78% 0 in
06:50 41.7 °F 35.7 °F 30.21 in Calm   -999.0 mph 79% 0 in
07:05 42.3 °F 36.3 °F 30.21 in Calm   -999.0 mph 79% 0 in
07:20 42.8 °F 37.4 °F 30.21 in Calm   -999.0 mph 81% 0 in
07:36 43.7 °F 38.3 °F 30.21 in Calm   -999.0 mph 81% 0 in
07:51 45.7 °F 38.6 °F 30.21 in Calm   -999.0 mph 76% 0 in
08:06 47.7 °F 39.5 °F 30.21 in Calm   -999.0 mph 73% 0 in
08:21 49.5 °F 41.2 °F 30.22 in Calm   -999.0 mph 73% 0 in
08:36 51.8 °F 40.0 °F 30.22 in Calm   -999.0 mph 64% 0 in
08:52 54.0 °F 40.4 °F 30.22 in Calm   -999.0 mph 60% 0 in
09:07 56.8 °F 40.8 °F 30.22 in NW 1.7 mph -999.0 mph 55% 0 in
09:22 61.2 °F 43.9 °F 30.22 in NNW 2.7 mph -999.0 mph 53% 0 in
09:37 62.8 °F 44.4 °F 30.22 in North 2.7 mph -999.0 mph 51% 0 in
09:52 66.6 °F 38.1 °F 30.22 in East 3.7 mph -999.0 mph 35% 0 in
10:08 69.4 °F 34.0 °F 30.22 in West 1.7 mph -999.0 mph 27% 0 in
10:23 70.3 °F 35.7 °F 30.22 in NW 5.3 mph -999.0 mph 28% 0 in
10:38 71.1 °F 34.5 °F 30.23 in NNW 3.7 mph -999.0 mph 26% 0 in
10:53 72.1 °F 34.3 °F 30.23 in NW 2.2 mph -999.0 mph 25% 0 in
11:09 73.4 °F 35.4 °F 30.23 in NNW 5.3 mph -999.0 mph 25% 0 in
11:24 75.2 °F 37.0 °F 30.23 in North 2.7 mph -999.0 mph 25% 0 in
11:39 76.1 °F 35.6 °F 30.23 in NW 3.7 mph -999.0 mph 23% 0 in
11:54 76.8 °F 35.1 °F 30.23 in NNW 5.3 mph -999.0 mph 22% 0 in
12:10 77.7 °F 34.7 °F 30.23 in West 2.2 mph -999.0 mph 21% 0 in
12:25 77.0 °F 35.2 °F 30.23 in NW 4.2 mph -999.0 mph 22% 0 in
12:40 78.4 °F 39.7 °F 30.23 in NW 4.7 mph -999.0 mph 25% 0 in
12:56 79.0 °F 38.0 °F 30.23 in NNW 4.2 mph -999.0 mph 23% 0 in
13:11 76.5 °F 35.9 °F 30.23 in NW 3.7 mph -999.0 mph 23% 0 in
13:26 77.5 °F 36.8 °F 30.22 in NNW 4.7 mph -999.0 mph 23% 0 in
13:42 76.5 °F 34.8 °F 30.22 in NNW 6.3 mph -999.0 mph 22% 0 in
13:57 78.1 °F 35.0 °F 30.22 in NE 3.2 mph -999.0 mph 21% 0 in
14:12 78.8 °F 39.0 °F 30.22 in NW 6.3 mph -999.0 mph 24% 0 in
14:28 77.5 °F 38.9 °F 30.22 in NNW 4.7 mph -999.0 mph 25% 0 in
14:43 78.3 °F 37.5 °F 30.22 in NW 4.2 mph -999.0 mph 23% 0 in
14:58 78.3 °F 36.3 °F 30.22 in SSW 2.2 mph -999.0 mph 22% 0 in
15:13 78.1 °F 37.3 °F 30.21 in NNW 4.7 mph -999.0 mph 23% 0 in
15:29 76.8 °F 38.3 °F 30.21 in NW 4.7 mph -999.0 mph 25% 0 in
15:44 77.7 °F 39.1 °F 30.21 in NNW 6.3 mph -999.0 mph 25% 0 in
15:59 76.5 °F 38.1 °F 30.21 in West 4.2 mph -999.0 mph 25% 0 in
16:15 77.0 °F 38.5 °F 30.21 in WNW 3.2 mph -999.0 mph 25% 0 in
16:30 77.4 °F 39.8 °F 30.21 in NW 4.7 mph -999.0 mph 26% 0 in
16:45 80.2 °F 41.2 °F 30.21 in WNW 5.3 mph -999.0 mph 25% 0 in
17:00 79.5 °F 40.6 °F 30.21 in NW 3.7 mph -999.0 mph 25% 0 in
17:15 81.9 °F 40.5 °F 30.20 in SSW 2.2 mph -999.0 mph 23% 0 in
17:31 78.3 °F 38.5 °F 30.21 in South 2.7 mph -999.0 mph 24% 0 in
17:46 79.7 °F 40.8 °F 30.20 in NNW 3.2 mph -999.0 mph 25% 0 in
18:01 78.3 °F 41.6 °F 30.20 in NW 4.7 mph -999.0 mph 27% 0 in
18:16 77.7 °F 41.1 °F 30.20 in WNW 3.7 mph -999.0 mph 27% 0 in
18:31 76.3 °F 40.8 °F 30.20 in WNW 3.2 mph -999.0 mph 28% 0 in
18:47 74.7 °F 41.2 °F 30.20 in NW 3.2 mph -999.0 mph 30% 0 in
19:02 74.7 °F 43.7 °F 30.20 in West 2.7 mph -999.0 mph 33% 0 in
19:17 71.1 °F 42.8 °F 30.21 in SSW 1.7 mph -999.0 mph 36% 0 in
19:32 67.8 °F 43.9 °F 30.21 in Calm   -999.0 mph 42% 0 in
19:48 65.8 °F 43.9 °F 30.21 in Calm   -999.0 mph 45% 0 in
20:03 64.9 °F 43.1 °F 30.21 in Calm   -999.0 mph 45% 0 in
20:18 63.9 °F 41.6 °F 30.21 in Calm   -999.0 mph 44% 0 in
20:33 63.0 °F 41.3 °F 30.22 in Calm   -999.0 mph 45% 0 in
20:49 61.7 °F 39.6 °F 30.22 in Calm   -999.0 mph 44% 0 in
21:04 60.8 °F 38.7 °F 30.22 in Calm   -999.0 mph 44% 0 in
21:19 59.9 °F 40.2 °F 30.22 in Calm   -999.0 mph 48% 0 in
21:34 58.8 °F 38.6 °F 30.23 in Calm   -999.0 mph 47% 0 in
21:49 58.3 °F 37.0 °F 30.23 in Calm   -999.0 mph 45% 0 in
22:05 57.7 °F 35.9 °F 30.23 in Calm   -999.0 mph 44% 0 in
22:20 57.2 °F 36.6 °F 30.23 in Calm   -999.0 mph 46% 0 in
22:35 56.5 °F 37.6 °F 30.23 in Calm   -999.0 mph 49% 0 in
22:50 55.6 °F 36.7 °F 30.23 in Calm   -999.0 mph 49% 0 in
23:05 55.0 °F 38.2 °F 30.23 in Calm   -999.0 mph 53% 0 in
23:21 54.0 °F 37.7 °F 30.23 in Calm   -999.0 mph 54% 0 in
23:36 53.4 °F 38.1 °F 30.23 in Calm   -999.0 mph 56% 0 in
23:51 52.7 °F 37.9 °F 30.23 in Calm   -999.0 mph 57% 0 in
Big Bear CA Weather